This demonstration page uses our WeatherBlox Daily Observations layout. Learn more.

Left ArrowRight Arrow

Hourly Observations for August 30, 2015

Temp ( °F °C ) Dew Point ( °F °C ) Humidity (%) Winds ( mph kmh ) Pressure ( in mb ) Visibility ( mi km ) Precip ( " mm )
12:53 am 00:53 Clear 69 20.6 45 7.2 42 42 Calm 29.89 1012 10 16 0.00 0.00
1:53 am 01:53 Clear 68 20 45 7.2 44 44 SW 3 6 29.91 1013 10 16 0.00 0.00
2:53 am 02:53 Clear 66 18.9 45 7.2 47 47 Calm 29.91 1013 10 16 0.00 0.00
3:53 am 03:53 Clear 63 17.2 46 7.8 54 54 Calm 29.93 1014 10 16 0.00 0.00
4:53 am 04:53 Clear 60 15.6 46 7.8 60 60 W 3 6 29.95 1014 10 16 0.00 0.00
5:53 am 05:53 Clear 59 15 48 8.9 67 67 N 5 7 29.97 1015 10 16 0.00 0.00
6:53 am 06:53 Sunny 58 14.4 47 8.3 67 67 Calm 29.98 1015 10 16 0.00 0.00
7:53 am 07:53 Sunny 63 17.2 49 9.4 60 60 Calm 30.00 1016 10 16 0.00 0.00
8:53 am 08:53 Sunny 67 19.4 48 8.9 51 51 Calm 30.01 1016 10 16 0.00 0.00
9:53 am 09:53 Sunny 73 22.8 47 8.3 40 40 N 3 6 30.01 1016 10 16 0.00 0.00
10:53 am 10:53 Sunny 77 25 46 7.8 33 33 VRB 5 7 30.01 1016 10 16 0.00 0.00
11:53 am 11:53 Sunny 80 26.7 45 7.2 29 29 ENE 6 9 29.99 1016 10 16 0.00 0.00
12:53 pm 12:53 Sunny 82 27.8 44 6.7 26 26 Calm 29.97 1015 10 16 0.00 0.00
1:53 pm 13:53 Sunny 84 28.9 45 7.2 25 25 SE 5 7 29.95 1014 10 16 0.00 0.00
2:53 pm 14:53 Sunny 87 30.6 45 7.2 23 23 N 3 6 29.93 1014 10 16 0.00 0.00
3:53 pm 15:53 Sunny 88 31.1 45 7.2 22 22 WNW 6 9 29.91 1013 10 16 0.00 0.00
4:53 pm 16:53 Sunny 89 31.7 45 7.2 22 22 VRB 5 7 29.89 1012 10 16 0.00 0.00
5:53 pm 17:53 Sunny 89 31.7 45 7.2 22 22 VRB 5 7 29.88 1012 10 16 0.00 0.00
6:53 pm 18:53 Sunny 87 30.6 45 7.2 23 23 VRB 3 6 29.87 1011 10 16 0.00 0.00
7:53 pm 19:53 Clear 83 28.3 45 7.2 26 26 NW 7 11 29.87 1011 10 16 0.00 0.00
8:53 pm 20:53 Clear 80 26.7 45 7.2 29 29 WNW 7 11 29.89 1012 10 16 0.00 0.00
9:53 pm 21:53 Clear 78 25.6 46 7.8 32 32 NW 7 11 29.89 1012 10 16 0.00 0.00
10:53 pm 22:53 Clear 76 24.4 46 7.8 35 35 VRB 3 6 29.90 1012 10 16 0.00 0.00
11:53 pm 23:53 Clear 75 23.9 46 7.8 36 36 NW 5 7 29.90 1012 10 16 0.00 0.00

Powered by AerisWeather